Location: Unspecified
(0.0000°N, 0.0000°E)
Time: 22:49:51
(UTC+00:00)

Envisat - Pass Details

Date: 17 February 2020
Orbit: 764 x 766 km, 98.1° (Epoch: 25 February)

Event Time Altitude Azimuth Distance (km) Brightness Sun altitude
Rises 05:30:26 0° 34° (NE) 3,214 6.5 -10.7°
Reaches altitude 10° 05:33:04 10° 46° (NE) 2,292 6.0 -10.0°
Maximum altitude 05:37:14 26° 102° (ESE) 1,461 5.5 -9.0°
Drops below altitude 10° 05:41:25 10° 158° (SSE) 2,300 6.0 -8.0°
Sets 05:44:03 0° 170° (S) 3,229 6.5 -7.3°
